www.pogodaiklimat.ru

Погода и климат >> Архив погоды >> Самоа >> Togitogiga


ПОГОДА в Togitogiga

  • Прогноз погоды в Togitogiga
  • Монитор погоды в Togitogiga
  • Климат города

АРХИВ ПОГОДЫ в Togitogiga

Время (UTC), дата Ветер
(напр.,м/с)
 
Видим.   Явления Облачность Т
(С)
Тd
(С)
f
(%)
Тe
(С)
Тes
(С)
Комфортность P
(гПа)
Po
(гПа)
Тmin
(С)
Tmax
(С)
R
(мм)
R24
(мм)
S
(см)
00 12.12 С 1 н/о н/о +23.4 +23.4 100 +33 +33 очень
душно
1009.9 1009.5 +22.1 18
03 12.12 С 1 н/о н/о +22.9 +22.9 100 +32 +32 очень
душно
1009.0 1008.6 2
06 12.12 штиль 0 н/о н/о +22.5 +22.5 100 +30 +30 очень
душно
1009.6 1009.2
09 12.12 С 1 н/о н/о +21.2 +21.2 100 +27 +27 душно 1011.6 1011.2
12 12.12 С 1 н/о н/о +21.2 +21.2 100 +27 +27 душно 1011.1 1010.7 +28.4
15 12.12 штиль 0 н/о н/о +21.4 +21.4 100 +27 +27 душно 1010.1 1009.7
18 12.12 С 1 н/о н/о +21.8 +21.8 100 +28 +28 душно 1011.9 1011.5
21 12.12 штиль 0 н/о н/о +25.7 +25.7 100 +38 +38 очень
душно
1012.1 1011.7
00 13.12 С 1 н/о н/о +26.6 +26.6 100 +41 +41 опасность
перегрева
1010.3 1009.9 +21.1
03 13.12 С 1 н/о н/о +26.2 +26.2 100 +39 +39 очень
душно
1009.8 1009.4
06 13.12 штиль 0 н/о н/о +24.3 +24.3 100 +34 +34 очень
душно
1012.1 1011.7
09 13.12 штиль 0 н/о н/о +23.0 +23.0 100 +32 +32 очень
душно
1012.8 1012.4
12 13.12 штиль 0 н/о н/о +22.0 +22.0 100 +29 +29 очень
душно
1011.0 1010.6 +25.7
15 13.12 штиль 0 н/о н/о +21.5 +21.5 100 +28 +28 очень
душно
1009.1 1008.7
18 13.12 штиль 0 н/о н/о +21.6 +21.6 100 +28 +28 очень
душно
1010.9 1010.5
21 13.12 С 1 н/о н/о +29.0 +29.0 100 +51 +51 опасность
перегрева
1010.7 1010.3
00 14.12 С 1 н/о н/о +30.4 +30.6 100 +58 +58 опасность
перегрева
1009.3 1008.9 +20.9
03 14.12 С 1 н/о н/о +30.0 +30.2 100 +55 +55 опасность
перегрева
1008.2 1007.8
06 14.12 штиль 0 н/о н/о +26.0 +26.0 100 +39 +39 очень
душно
1009.9 1009.5
09 14.12 штиль 0 н/о н/о +23.6 +23.6 100 +32 +32 очень
душно
1011.0 1010.6
12 14.12 штиль 0 н/о н/о +22.3 +22.3 100 +30 +30 очень
душно
1008.8 1008.4 +29.0
15 14.12 штиль 0 н/о н/о +22.4 +22.4 100 +30 +30 очень
душно
1008.0 1007.6
18 14.12 штиль 0 н/о н/о +22.9 +22.9 100 +32 +32 очень
душно
1009.2 1008.8
21 14.12 С 1 н/о н/о +28.3 +28.3 100 +48 +48 опасность
перегрева
1009.9 1009.5
00 15.12 С 1 н/о н/о +30.1 +30.1 100 +56 +56 опасность
перегрева
1008.0 1007.6 +20.6
03 15.12 штиль 0 н/о н/о +31.0 +31.0 100 +61 +61 опасность
перегрева
1006.4 1006.0
06 15.12 штиль 0 н/о н/о +26.6 +26.6 100 +41 +41 опасность
перегрева
1007.7 1007.3
09 15.12 С 1 н/о н/о +23.8 +23.8 100 +32 +32 очень
душно
1009.0 1008.6
12 15.12 штиль 0 н/о н/о +23.0 +23.0 100 +32 +32 очень
душно
1007.3 1006.9 +31.2
15 15.12 С 1 н/о н/о +22.3 +22.3 100 +30 +30 очень
душно
1006.4 1006.0
18 15.12 штиль 0 н/о н/о +22.7 +22.7 100 +31 +31 очень
душно
1008.2 1007.8
21 15.12 штиль 0 н/о н/о +30.3 +30.5 100 +57 +57 опасность
перегрева
1008.1 1007.7
00 16.12 С 2 н/о н/о +30.0 +30.2 100 +55 +55 опасность
перегрева
1007.2 1006.8 +22.0
03 16.12 С 2 н/о н/о +28.1 +28.1 100 +47 +47 опасность
перегрева
1006.6 1006.2
06 16.12 штиль 0 н/о н/о +24.2 +24.2 100 +33 +33 очень
душно
1008.2 1007.8 0.5
09 16.12 штиль 0 н/о н/о +23.9 +23.9 100 +33 +33 очень
душно
1009.4 1009.0
12 16.12 штиль 0 н/о н/о +23.7 +23.7 100 +32 +32 очень
душно
1009.0 1008.6 +31.8
15 16.12 С 1 н/о н/о +22.9 +22.9 100 +32 +32 очень
душно
1008.2 1007.8
18 16.12 С 1 н/о н/о +22.9 +22.9 100 +32 +32 очень
душно
1010.3 1009.9
21 16.12 С 1 н/о н/о +29.0 +29.0 100 +51 +51 опасность
перегрева
1011.1 1010.7
00 17.12 С 1 н/о н/о +27.7 +27.7 100 +45 +45 опасность
перегрева
1010.4 1010.0 +22.2 0.5
03 17.12 штиль 0 н/о н/о +27.2 +27.2 100 +43 +43 опасность
перегрева
1009.7 1009.3 1
06 17.12 штиль 0 н/о н/о +24.7 +24.7 100 +35 +35 очень
душно
1011.7 1011.3
09 17.12 штиль 0 н/о н/о +23.7 +23.7 100 +32 +32 очень
душно
1013.6 1013.2
12 17.12 0 н/о +22.8 1012.2 1011.8
15 17.12 С 1 н/о н/о +22.4 +22.4 100 +30 +30 очень
душно
1010.7 1010.3
18 17.12 штиль 0 н/о н/о +23.1 +23.1 100 +32 +32 очень
душно
1012.4 1012.0
21 17.12 С 3 н/о н/о +28.0 +28.0 100 +46 +46 опасность
перегрева
1013.3 1012.9
00 18.12 С 1 н/о н/о +29.6 +29.6 100 +53 +53 опасность
перегрева
1011.9 1011.5 +22.5
03 18.12 С 1 н/о н/о +30.3 +30.3 100 +57 +57 опасность
перегрева
1010.5 1010.1
06 18.12 штиль 0 н/о н/о +25.1 +25.3 100 +36 +36 очень
душно
1012.0 1011.6
09 18.12 штиль 0 н/о н/о +22.6 +22.6 100 +31 +31 очень
душно
1014.3 1013.9
12 18.12 С 1 н/о н/о +21.7 +21.7 100 +28 +28 душно 1013.0 1012.6 +30.4
15 18.12 штиль 0 н/о н/о +21.3 +21.3 100 +27 +27 душно 1011.7 1011.3
18 18.12 штиль 0 н/о н/о +22.2 +22.2 100 +30 +30 очень
душно
1013.2 1012.8

 

Местоположение метеостанции Togitogiga (Самоа): широта -14.03 долгота -171.77 высота над уровнем моря 4 м.

В архиве по умолчанию представлена погода в Togitogiga за последнюю неделю. Архивные данные за месяц целиком и за предыдущие месяцы, начиная с января 2011 года, Вы можете получить, выбрав интересующий диапазон дат из раскрывающегося списка и нажав кнопку "Ввод!".


*Определитесь, кто Вы:
робот инопланетянин человек

Внимание! Время в таблицах - всемирное. Для получения местного времени необходимо прибавить поправку, которая в Togitogiga равна 13 ч.

Смотрите также архив погоды в соседних городах и на ближайших метеорологических станциях:

Погода в Le Mafa (Самоа) (20 км)
Погода в Apia (Американское Самоа) (27 км)
Погода в Lufi-Lufi (Самоа) (28 км)
Погода в Faleolo Int East (Самоа) (33 км)
Погода в Faleolo Int Airport (Американское Самоа) (35 км)
Погода в Faleolo Int Airport (Самоа) (35 км)
Погода в Manono (Самоа) (42 км)
Погода в Maota Int Airport (Самоа) (62 км)
Погода в Le Piu Tai (Самоа) (92 км)
Погода в Mount Talu (Самоа) (115 км)

Пояснения к столбцам:

Ветер - указаны скорость ветра в м/с - средняя за 10 мин, порывы в срок и между сроками (в фигурных скобках) и направление, откуда дует ветер: С - северный, СВ - северо-восточный, В - восточный, ЮВ - юго-восточный, Ю - южный, ЮЗ - юго-западный, З - западный, СЗ - северо-западный.
Видимость - горизонтальная дальность видимости в метрах или километрах. При видимости от 1 до 10 км при отсутствии осадков обычно наблюдается дымка, при ухудшении видимости до 1 км и менее - туман. В сухую погоду видимость может ухудшаться дымом, пылью или мглою.
Явления - указаны атмосферные явления, наблюдавшиеся в срок или в последний час перед сроком; фигурными скобками обозначены явления, наблюдавшиеся между сроками (за 1-3 часа до срока); квадратными скобками обозначены град или гололедные отложения с указанием их диаметра в мм.
Облачность - указаны через наклонную черту общая и нижняя облачность в баллах и высота нижней границы облаков в метрах; квадратными скобками обозначены формы облаков: Ci - перистые, Cs - перисто-слоистые, Cc - перисто-кучевые, Ac - высококучевые, As - высокослоистые, Sc - слоисто-кучевые, Ns - слоисто-дождевые, Cu - кучевые, Cb - кучево-дождевые. Подробнее классификацию облаков см. в Атласе облаков (PDF).
T - Температура воздуха - температура, измеренная на высоте 2 м над землей.
Td - Температура точки росы - температура, при понижении до которой содержащийся в воздухе водяной пар достигнет насыщения.
f - Относительная влажность воздуха - влажноcть воздуха, измеренная на высоте 2 м над землей.
Te - Эффективная температура - температура, которую ощущает одетый по сезону человек в тени. Характеристика душности погоды. При расчете учитывается влияние влажности воздуха и скорости ветра на теплоощущения человека.
Tes - Эффективная температура на солнце - температура, которую ощущает человек, с поправкой на солнечный нагрев. Характеристика знойности погоды. Зависит от высоты солнца над горизонтом, облачности и скорости ветра. Ночью, в пасмурную погоду, а также при ветре 12 м/с и более поправка равна нулю.
P - Атмосферное давление - приведенное к уровню моря атмосферное давление.
Po - Атмосферное давление - измеренное на уровне метеостанции атмосферное давление.
Tmin - Минимальная температура - минимум температуры воздуха на высоте 2 м над землей.
Tmax - Максимальная температура - максимум температуры воздуха на высоте 2 м над землей.
R - Количество осадков - Количество выпавших осадков за период времени, мм. При наведении курсора мыши на число - период времени, за который выпало указанное количество осадков.
R24 - Количество осадков - Количество выпавших осадков за 24 часа, мм.
S - Снежный покров - Высота снежного покрова, см. При наведении курсора мыши на число - состояние снежного покрова и степень покрытия местности в баллах.